N5TDX Weather Reports


time (UTC)temp
C
wind
direction
speed
KPH
gust
KPH
rain 1hr
cm
rain 24hr
cm
rain mn
cm
humidity
%
barometer
mb
20260506024726 20 90 1.6 6.4 0.00 0.00 0.00 66 1005.0
20260506024223 20 24 1.6 4.8 0.00 0.00 0.00 66 1005.2
20260506023719 20 39 0.0 6.4 0.00 0.00 0.00 66 1004.9
20260506023217 20 281 3.2 6.4 0.00 0.00 0.00 66 1004.7
20260506022713 21 91 3.2 4.8 0.00 0.00 0.00 66 1005.0
20260506022211 21 32 3.2 4.8 0.00 0.00 0.00 65 1004.7
20260506021709 21 56 1.6 9.7 0.00 0.00 0.00 65 1004.5
20260506021206 21 52 4.8 6.4 0.00 0.00 0.00 64 1004.7
20260506020703 21 98 1.6 14.5 0.00 0.00 0.00 65 1004.6
20260506020200 21 9 1.6 4.8 0.00 0.00 0.00 65 1004.2
20260506015658 21 25 1.6 4.8 0.00 0.00 0.00 65 1004.4
20260506015155 22 37 1.6 6.4 0.00 0.00 0.00 65 1004.2
20260506014652 22 20 1.6 3.2 0.00 0.00 0.00 64 1004.0
20260506014148 22 55 1.6 6.4 0.00 0.00 0.00 64 1003.6
20260506013646 22 49 1.6 4.8 0.00 0.00 0.00 63 1003.9
20260506013143 22 9 3.2 3.2 0.00 0.00 0.00 63 1003.8
20260506012639 22 338 0.0 6.4 0.00 0.00 0.00 63 1003.3
20260506012136 22 60 1.6 6.4 0.00 0.00 0.00 63 1003.5
20260506011633 22 2 3.2 4.8 0.00 0.00 0.00 62 1003.2
20260506011129 23 36 3.2 9.7 0.00 0.00 0.00 62 1003.0
20260506010628 23 25 0.0 4.8 0.00 0.00 0.00 61 1002.8
20260506010125 23 64 0.0 3.2 0.00 0.00 0.00 61 1003.0
20260506005622 23 53 1.6 4.8 0.00 0.00 0.00 61 1003.1
20260506005118 23 33 1.6 3.2 0.00 0.00 0.00 61 1002.6
20260506004615 23 326 1.6 3.2 0.00 0.00 0.00 60 1002.9
20260506004112 23 59 3.2 4.8 0.00 0.00 0.00 60 1002.9
20260506003608 23 13 1.6 4.8 0.00 0.00 0.00 60 1002.8
20260506003104 24 331 3.2 3.2 0.00 0.00 0.00 59 1002.9
20260506002600 24 48 1.6 4.8 0.00 0.00 0.00 59 1002.3
20260506002057 24 334 3.2 3.2 0.00 0.00 0.00 58 1002.6
20260506001553 25 77 0.0 3.2 0.00 0.00 0.00 57 1002.5
20260506001050 25 321 3.2 4.8 0.00 0.00 0.00 57 1002.4
20260506000547 25 30 3.2 9.7 0.00 0.00 0.00 56 1002.4
20260506000045 25 355 1.6 6.4 0.00 0.00 0.00 56 1002.5
20260505235543 25 59 1.6 4.8 0.00 0.00 0.00 55 1002.3
20260505235039 25 21 3.2 11.3 0.00 0.00 0.00 54 1002.3
20260505234536 26 61 1.6 6.4 0.00 0.00 0.00 54 1001.9
20260505234033 26 57 1.6 3.2 0.00 0.00 0.00 55 1002.2
20260505233530 26 345 3.2 6.4 0.00 0.00 0.00 54 1001.8
20260505233028 26 299 3.2 4.8 0.00 0.00 0.00 54 1002.0
20260505232526 26 46 3.2 6.4 0.00 0.00 0.00 54 1001.7
20260505232023 26 28 3.2 9.7 0.00 0.00 0.00 54 1001.7
20260505231520 26 49 3.2 6.4 0.00 0.00 0.00 55 1001.7
20260505231019 27 1 3.2 6.4 0.00 0.00 0.00 54 1001.7
20260505230515 27 33 6.4 11.3 0.00 0.00 0.00 54 1001.6
20260505230012 28 83 4.8 9.7 0.00 0.00 0.00 54 1001.6
20260505225509 28 60 6.4 12.9 0.00 0.00 0.00 54 1001.5
20260505225005 29 72 1.6 11.3 0.00 0.00 0.00 52 1001.5
20260505224502 29 349 0.0 6.4 0.00 0.00 0.00 48 1001.4
20260505223959 30 219 1.6 3.2 0.00 0.00 0.00 44 1001.3
20260505223456 30 337 1.6 3.2 0.00 0.00 0.00 42 1001.5
20260505222952 30 354 0.0 3.2 0.00 0.00 0.00 44 1001.1
20260505222449 30 62 1.6 3.2 0.00 0.00 0.00 44 1001.2
20260505221944 30 5 1.6 3.2 0.00 0.00 0.00 42 1001.0
20260505221442 31 52 3.2 4.8 0.00 0.00 0.00 42 1001.2
20260505220939 32 55 3.2 6.4 0.00 0.00 0.00 40 1001.1
20260505220436 33 293 1.6 3.2 0.00 0.00 0.00 39 1000.7
20260505215933 32 257 0.0 4.8 0.00 0.00 0.00 42 1000.8
20260505215431 32 228 4.8 4.8 0.00 0.00 0.00 39 1000.8
20260505214929 32 214 3.2 4.8 0.00 0.00 0.00 40 1000.9
20260505214426 33 224 1.6 6.4 0.00 0.00 0.00 39 1001.0
20260505213924 33 305 0.0 4.8 0.00 0.00 0.00 40 1000.9
20260505213421 33 300 1.6 3.2 0.00 0.00 0.00 38 1001.0
20260505212917 33 8 1.6 4.8 0.00 0.00 0.00 40 1000.7
20260505212414 32 267 3.2 6.4 0.00 0.00 0.00 40 1001.1
20260505211911 32 277 3.2 4.8 0.00 0.00 0.00 39 1001.1
20260505211409 32 218 3.2 9.7 0.00 0.00 0.00 41 1001.2
20260505210904 33 277 4.8 12.9 0.00 0.00 0.00 39 1001.2
20260505210402 32 263 1.6 6.4 0.00 0.00 0.00 38 1001.3
20260505205858 32 235 3.2 4.8 0.00 0.00 0.00 39 1001.2
20260505205357 32 248 1.6 14.5 0.00 0.00 0.00 40 1001.3
20260505204853 32 334 3.2 6.4 0.00 0.00 0.00 38 1001.6
20260505204351 32 197 6.4 9.7 0.00 0.00 0.00 40 1001.5
20260505203848 32 308 1.6 9.7 0.00 0.00 0.00 43 1001.7
20260505203344 32 278 0.0 1.6 0.00 0.00 0.00 45 1001.7
20260505202841 32 220 1.6 4.8 0.00 0.00 0.00 46 1001.8
20260505202337 32 215 1.6 3.2 0.00 0.00 0.00 45 1001.8
20260505201834 32 212 4.8 6.4 0.00 0.00 0.00 46 1001.8
20260505201332 32 242 3.2 6.4 0.00 0.00 0.00 46 1001.9
20260505200830 32 225 4.8 11.3 0.00 0.00 0.00 45 1001.9
20260505200326 32 252 6.4 12.9 0.00 0.00 0.00 45 1002.0
20260505195822 32 218 6.4 11.3 0.00 0.00 0.00 46 1001.9
20260505195319 32 247 3.2 4.8 0.00 0.00 0.00 45 1002.1
20260505194816 32 276 3.2 12.9 0.00 0.00 0.00 46 1002.1
20260505194313 32 257 8.0 11.3 0.00 0.00 0.00 44 1002.0
20260505193808 32 323 9.7 12.9 0.00 0.00 0.00 44 1002.0
20260505193307 32 284 4.8 11.3 0.00 0.00 0.00 47 1001.9
20260505192804 32 244 4.8 14.5 0.00 0.00 0.00 47 1001.9
20260505192305 31 317 3.2 12.9 0.00 0.00 0.00 47 1002.1
20260505191800 31 207 6.4 6.4 0.00 0.00 0.00 49 1002.0
20260505191258 31 219 6.4 11.3 0.00 0.00 0.00 49 1001.9
20260505190754 31 238 6.4 11.3 0.00 0.00 0.00 49 1002.0
20260505190249 30 254 9.7 14.5 0.00 0.00 0.00 50 1002.0
20260505185746 31 262 12.9 16.1 0.00 0.00 0.00 49 1001.9
20260505185242 31 247 4.8 11.3 0.00 0.00 0.00 50 1002.1
20260505184738 31 220 6.4 11.3 0.00 0.00 0.00 51 1002.0
20260505184236 31 297 6.4 11.3 0.00 0.00 0.00 51 1002.1
20260505183733 31 272 3.2 16.1 0.00 0.00 0.00 53 1002.0
20260505183230 30 242 1.6 3.2 0.00 0.00 0.00 54 1002.2
20260505182726 30 272 9.7 14.5 0.00 0.00 0.00 53 1002.2
20260505182223 30 213 6.4 11.3 0.00 0.00 0.00 56 1002.1
20260505181719 30 155 1.6 11.3 0.00 0.00 0.00 57 1002.3
20260505181217 30 249 3.2 4.8 0.00 0.00 0.00 58 1002.2
20260505180714 30 253 4.8 14.5 0.00 0.00 0.00 57 1002.4
20260505180210 29 299 4.8 9.7 0.00 0.00 0.00 59 1002.3
20260505175706 28 219 1.6 6.4 0.00 0.00 0.00 61 1002.4
20260505175203 28 318 6.4 12.9 0.00 0.00 0.00 60 1002.2
20260505174659 28 211 1.6 4.8 0.00 0.00 0.00 61 1002.4
20260505174155 28 198 6.4 9.7 0.00 0.00 0.00 61 1002.5
20260505173652 28 276 6.4 11.3 0.00 0.00 0.00 61 1002.5
20260505173149 28 219 3.2 4.8 0.00 0.00 0.00 61 1002.6
20260505172647 28 233 6.4 11.3 0.00 0.00 0.00 63 1002.6
20260505172144 28 262 1.6 4.8 0.00 0.00 0.00 64 1002.7
20260505171643 27 245 3.2 6.4 0.00 0.00 0.00 65 1002.6
20260505171141 27 228 3.2 6.4 0.00 0.00 0.00 65 1002.5
20260505170638 27 257 4.8 9.7 0.00 0.00 0.00 65 1002.6
20260505170134 27 239 3.2 6.4 0.00 0.00 0.00 64 1002.6
20260505165629 27 295 3.2 4.8 0.00 0.00 0.00 65 1002.7
20260505165126 27 229 6.4 14.5 0.00 0.00 0.00 64 1002.4
20260505164621 27 206 3.2 6.4 0.00 0.00 0.00 65 1002.7
20260505164119 27 281 4.8 9.7 0.00 0.00 0.00 65 1002.6
20260505163617 27 272 3.2 9.7 0.00 0.00 0.00 66 1002.7
20260505163114 27 227 4.8 6.4 0.00 0.00 0.00 65 1002.5
20260505162612 27 273 4.8 6.4 0.00 0.00 0.00 65 1002.4
20260505162109 26 277 1.6 3.2 0.00 0.00 0.00 68 1002.4
20260505161606 26 273 3.2 6.4 0.00 0.00 0.00 69 1002.1
20260505161103 26 240 3.2 6.4 0.00 0.00 0.00 69 1002.1
20260505160601 26 323 4.8 11.3 0.00 0.00 0.00 69 1002.3
20260505153038 25 187 1.6 6.4 0.00 0.00 0.00 73 1002.0
20260505152534 25 272 4.8 6.4 0.00 0.00 0.00 73 1002.1
20260505152030 25 239 4.8 9.7 0.00 0.00 0.00 72 1002.4
20260505151531 25 248 1.6 9.7 0.00 0.00 0.00 72 1002.3
20260505151028 25 251 3.2 6.4 0.00 0.00 0.00 72 1002.5
20260505150524 25 240 3.2 3.2 0.00 0.00 0.00 74 1002.3
20260505140449 22 267 3.2 9.7 0.00 0.00 0.00 80 1002.4
20260505124903 21 184 3.2 4.8 0.00 0.00 0.00 84 1001.7
20260505124400 21 282 1.6 6.4 0.00 0.00 0.00 84 1001.6
20260505123856 21 250 1.6 1.6 0.00 0.00 0.00 85 1001.6
20260505123353 21 246 1.6 6.4 0.00 0.00 0.00 85 1001.9
20260505122848 21 14 1.6 3.2 0.00 0.00 0.00 85 1001.3
20260505122346 21 205 4.8 6.4 0.00 0.00 0.00 85 1001.5
20260505121843 21 188 3.2 4.8 0.00 0.00 0.00 85 1001.5
20260505121340 21 87 3.2 6.4 0.00 0.00 0.00 85 1001.5
20260505120836 21 250 6.4 11.3 0.00 0.00 0.00 85 1001.5
20260505120332 21 270 6.4 11.3 0.00 0.00 0.00 85 1001.4
20260505115831 21 309 3.2 4.8 0.00 0.00 0.00 85 1001.4
20260505115328 21 243 4.8 4.8 0.00 0.00 0.00 85 1001.1
20260505114826 21 239 1.6 4.8 0.00 0.00 0.00 85 1001.0
20260505114322 21 333 1.6 9.7 0.00 0.00 0.00 85 1001.1
20260505113819 21 263 1.6 6.4 0.00 0.00 0.00 85 1001.4
20260505113315 21 239 3.2 4.8 0.00 0.00 0.00 85 1001.2
20260505112811 21 213 1.6 9.7 0.00 0.00 0.00 85 1001.2
20260505112309 21 336 1.6 6.4 0.00 0.00 0.00 85 1001.0
20260505111804 21 244 3.2 6.4 0.00 0.00 0.00 86 1001.2
20260505111300 21 275 3.2 4.8 0.00 0.00 0.00 86 1001.0
20260505110756 21 246 1.6 3.2 0.00 0.00 0.00 86 1001.1
20260505110254 20 267 4.8 9.7 0.00 0.00 0.00 86 1000.9
20260505101728 20 202 4.8 9.7 0.00 0.00 0.00 86 1000.7
20260505101224 20 238 3.2 3.2 0.00 0.00 0.00 86 1000.7
20260505100720 20 261 3.2 6.4 0.00 0.00 0.00 86 1001.0
20260505100217 20 224 3.2 9.7 0.00 0.00 0.00 86 1000.7
20260505095712 20 356 3.2 9.7 0.00 0.00 0.00 86 1000.8
20260505095211 20 244 8.0 14.5 0.00 0.00 0.00 86 1000.9
20260505094706 20 341 3.2 4.8 0.00 0.00 0.00 86 1001.0
20260505094203 20 102 3.2 4.8 0.00 0.00 0.00 86 1001.0
20260505093659 20 268 1.6 3.2 0.00 0.00 0.00 86 1001.1
20260505093157 20 297 1.6 6.4 0.00 0.00 0.00 86 1001.3
20260505092653 20 31 1.6 6.4 0.00 0.00 0.00 86 1001.2
20260505092152 20 238 1.6 4.8 0.00 0.00 0.00 86 1001.3
20260505091649 20 233 4.8 6.4 0.00 0.00 0.00 85 1001.3
20260505091147 20 142 1.6 6.4 0.00 0.00 0.00 85 1001.4
20260505090644 20 268 3.2 6.4 0.00 0.00 0.00 85 1001.3
20260505090142 20 249 4.8 6.4 0.00 0.00 0.00 85 1001.4
20260505085639 21 196 4.8 14.5 0.00 0.00 0.00 84 1001.5
20260505085137 21 253 3.2 9.7 0.00 0.00 0.00 84 1001.4
20260505084635 21 203 6.4 11.3 0.00 0.00 0.00 84 1001.4
20260505084133 21 243 3.2 4.8 0.00 0.00 0.00 83 1001.4
20260505083630 21 214 1.6 4.8 0.00 0.00 0.00 83 1001.6
20260505083127 21 165 6.4 9.7 0.00 0.00 0.00 83 1001.8
20260505082623 21 237 4.8 6.4 0.00 0.00 0.00 82 1001.6
20260505082120 21 107 1.6 9.7 0.00 0.00 0.00 82 1001.4
20260505081616 21 258 1.6 14.5 0.00 0.00 0.00 82 1001.2
20260505081114 21 247 3.2 4.8 0.00 0.00 0.00 81 1001.6
20260505080609 21 14 3.2 6.4 0.00 0.00 0.00 81 1001.5
20260505080106 21 312 3.2 9.7 0.00 0.00 0.00 80 1001.5
20260505075602 21 226 3.2 4.8 0.00 0.00 0.00 80 1001.3
20260505075059 21 186 4.8 11.3 0.00 0.00 0.00 79 1001.4
20260505074556 21 169 4.8 6.4 0.00 0.00 0.00 79 1001.7
20260505074053 21 164 8.0 12.9 0.00 0.00 0.00 78 1001.6
20260505073550 21 192 3.2 4.8 0.00 0.00 0.00 78 1001.9
20260505073049 21 235 1.6 9.7 0.00 0.00 0.00 77 1001.9
20260505072549 21 248 3.2 4.8 0.00 0.00 0.00 77 1002.0
20260505072046 21 139 0.0 6.4 0.00 0.00 0.00 77 1002.1
20260505071541 22 224 1.6 4.8 0.00 0.00 0.00 77 1002.3
20260505071040 22 147 3.2 3.2 0.00 0.00 0.00 76 1002.2
20260505070537 22 301 1.6 3.2 0.00 0.00 0.00 76 1002.3
20260505070033 22 13 1.6 9.7 0.00 0.00 0.00 76 1002.5
20260505065529 22 201 1.6 3.2 0.00 0.00 0.00 76 1002.5
20260505065026 22 222 3.2 4.8 0.00 0.00 0.00 75 1002.8
20260505064523 22 269 1.6 11.3 0.00 0.00 0.00 75 1002.7
20260505064021 22 289 3.2 6.4 0.00 0.00 0.00 75 1002.8
20260505063518 22 262 0.0 3.2 0.00 0.00 0.00 75 1002.8
20260505063014 22 272 1.6 3.2 0.00 0.00 0.00 74 1002.9
20260505062511 22 138 1.6 11.3 0.00 0.00 0.00 74 1002.9
20260505062008 22 294 3.2 3.2 0.00 0.00 0.00 74 1002.8
20260505061506 22 119 1.6 4.8 0.00 0.00 0.00 74 1002.5
20260505061003 22 167 3.2 4.8 0.00 0.00 0.00 74 1002.9
20260505060500 22 276 1.6 4.8 0.00 0.00 0.00 74 1003.0
20260505055956 22 296 1.6 4.8 0.00 0.00 0.00 74 1003.1
20260505055452 22 169 0.0 9.7 0.00 0.00 0.00 73 1002.9
20260505054949 22 272 1.6 4.8 0.00 0.00 0.00 73 1002.7
20260505054447 22 69 3.2 4.8 0.00 0.00 0.00 73 1002.7
20260505053945 22 248 1.6 4.8 0.00 0.00 0.00 73 1002.9
20260505053441 22 256 6.4 11.3 0.00 0.00 0.00 73 1002.6
20260505052938 22 266 1.6 9.7 0.00 0.00 0.00 72 1002.8
20260505052435 22 194 3.2 11.3 0.00 0.00 0.00 72 1002.5
20260505051932 22 165 1.6 12.9 0.00 0.00 0.00 72 1002.4
20260505051429 23 255 3.2 9.7 0.00 0.00 0.00 72 1003.0
20260505050927 23 206 1.6 12.9 0.00 0.00 0.00 71 1002.9
20260505050425 23 135 1.6 3.2 0.00 0.00 0.00 71 1002.9
20260505041353 23 159 3.2 6.4 0.00 0.00 0.00 70 1002.9
20260505040850 23 49 1.6 17.7 0.00 0.00 0.00 70 1003.0
20260505040348 23 267 1.6 4.8 0.00 0.00 0.00 69 1003.1
20260505035844 23 58 3.2 6.4 0.00 0.00 0.00 69 1003.1
20260505035340 23 253 11.3 16.1 0.00 0.00 0.00 69 1002.9
20260505034838 23 224 3.2 3.2 0.00 0.00 0.00 69 1002.8
20260505034334 23 130 1.6 6.4 0.00 0.00 0.00 68 1002.9
20260505033831 23 168 3.2 9.7 0.00 0.00 0.00 68 1003.1
20260505033328 23 299 4.8 9.7 0.00 0.00 0.00 67 1002.9
20260505032826 23 195 3.2 3.2 0.00 0.00 0.00 67 1002.8
20260505032322 24 203 9.7 16.1 0.00 0.00 0.00 67 1002.7
20260505031820 24 262 6.4 12.9 0.00 0.00 0.00 67 1002.7
20260505031316 24 210 3.2 3.2 0.00 0.00 0.00 67 1002.8
20260505030813 24 63 1.6 11.3 0.00 0.00 0.00 67 1002.8
20260505030310 24 210 6.4 12.9 0.00 0.00 0.00 67 1002.7
20260505025804 24 310 3.2 9.7 0.00 0.00 0.00 66 1002.8
20260505025304 24 95 1.6 9.7 0.00 0.00 0.00 66 1003.1